Weather History for KPRB - January, 2013

Change the Weather History Date:

Wednesday, January 16, 2013

  Actual Average Record
Temperature  
Mean Temperature 44 °F 47 °F  
Max Temperature 62 °F 60 °F 81 °F (2014)
Min Temperature 25 °F 35 °F 16 °F (2007)
Degree Days  
Heating Degree Days 21 18  
Month to date heating degree days 361 293  
Since 1 July heating degree days 1300 1417  
Cooling Degree Days 0 0  
Month to date cooling degree days 0 0  
Year to date cooling degree days 0 0  
Moisture  
Dew Point 29 °F    
Average Humidity 63    
Maximum Humidity 92    
Minimum Humidity 34    
Precipitation  
Precipitation 0.00 in 0.09 in 0.97 in (1978)
Month to date precipitation 0.43 1.44  
Year to date precipitation 0.43 1.44  
Since 1 July precipitation 3.64 5.43  
Sea Level Pressure  
Sea Level Pressure 30.34 in    
Wind  
Wind Speed 1 mph (ESE)    
Max Wind Speed 16 mph    
Max Gust Speed 29 mph    
Visibility 9 miles    
Events      
T = Trace of Precipitation, MM = Missing Value Source: NWS Daily Summary

Daily Weather History Graph

Daily Weather History Graph

Search for Another Location

Airport or City:

Trip Planner

Search our weather history database for the weather conditions in past years. The results will help you decide how hot, cold, wet, or windy it might be!

Date:

Astronomy

Jan. 16, 2013 Rise Set
Actual Time 7:11 AM PST 5:13 PM PST
Civil Twilight 6:43 AM PST 5:41 PM PST
Nautical Twilight 6:12 AM PST 6:12 PM PST
Astronomical Twilight 5:41 AM PST 6:43 PM PST
Moon 10:03 AM PST (1/16) 10:56 PM PST (1/16)
Length of Visible Light 10h 58m
Length of Day
10h 02m
Waxing Crescent, 29% of the Moon is Illuminated
Jan 16
Waxing Crescent
Jan 18
First Quarter
Jan 26
Full
Feb 3
Last Quarter
Feb 9
New

Hourly Weather History & Observations

Time (PST) Temp. Windchill Dew Point Humidity Pressure Visibility Wind Dir Wind Speed Gust Speed Precip Events Conditions
12:53 AM 30.0 °F 26.5 °F 25.0 °F 82% 30.42 in 8.0 mi ENE 3.5 mph - N/A   Clear
1:53 AM 28.0 °F - 25.0 °F 88% 30.43 in 8.0 mi Calm Calm - N/A   Clear
2:53 AM 28.0 °F - 24.1 °F 85% 30.43 in 10.0 mi Calm Calm - N/A   Clear
3:53 AM 27.0 °F 23.0 °F 24.1 °F 89% 30.43 in 8.0 mi ESE 3.5 mph - N/A   Clear
4:53 AM 26.1 °F - 23.0 °F 88% 30.42 in 8.0 mi Calm Calm - N/A   Clear
5:53 AM 26.1 °F - 23.0 °F 88% 30.42 in 8.0 mi Calm Calm - N/A   Clear
6:53 AM 25.0 °F - 23.0 °F 92% 30.42 in 7.0 mi Calm Calm - N/A   Clear
7:53 AM 27.0 °F - 25.0 °F 92% 30.43 in 6.0 mi Calm Calm - N/A   Clear
8:53 AM 30.9 °F - 27.0 °F 85% 30.44 in 9.0 mi Calm Calm - N/A   Clear
9:53 AM 36.0 °F - 28.0 °F 73% 30.43 in 10.0 mi Calm Calm - N/A   Clear
10:53 AM 41.0 °F - 28.9 °F 62% 30.40 in 10.0 mi Calm Calm - N/A   Clear
12:53 PM 53.1 °F - 30.9 °F 43% 30.29 in 10.0 mi Calm Calm - N/A   Clear
1:53 PM 57.9 °F - 32.0 °F 37% 30.27 in 10.0 mi Calm Calm - N/A   Clear
2:53 PM 60.1 °F - 33.1 °F 36% 30.25 in 10.0 mi Calm Calm - N/A   Clear
3:53 PM 62.1 °F - 34.0 °F 35% 30.25 in 10.0 mi Calm Calm - N/A   Clear
4:53 PM 60.1 °F - 35.1 °F 39% 30.25 in 10.0 mi Calm Calm - N/A   Clear
5:53 PM 52.0 °F - 33.1 °F 49% 30.26 in 10.0 mi East 10.4 mph - N/A   Clear
6:53 PM 48.0 °F - 32.0 °F 54% 30.27 in 10.0 mi ESE 5.8 mph - N/A   Clear
7:53 PM 46.0 °F 41.0 °F 30.9 °F 56% 30.27 in 10.0 mi SE 10.4 mph - N/A   Clear
8:53 PM 44.1 °F - 30.0 °F 58% 30.27 in 10.0 mi Calm Calm - N/A   Clear
9:53 PM 41.0 °F - 30.0 °F 65% 30.27 in 10.0 mi Calm Calm - N/A   Clear
10:53 PM 39.9 °F - 30.9 °F 70% 30.26 in 10.0 mi Calm Calm - N/A   Clear
11:53 PM 35.1 °F - 28.0 °F 76% 30.26 in 10.0 mi Calm Calm - N/A   Clear